Regional Weather Roundup
Issued by NWS Charleston, WV

Home | Current Version | Previous Version | Text Only | Print | Product List | Glossary Off
Versions: 1 2 3 4 5 6 7 8 9 10 11 12 13 14 15 16 17 18 19 20 21 22 23 24 25 26 27 28 29 30 31 32 33 34 35 36 37 38 39 40 41 42 43 44 45 46 47 48 49 50

000
ASUS41 KRLX 291510
RWRRLX
West Virginia Regional Weather Roundup
National Weather Service Charleston WV
1100 AM EDT WED JUL 29 2015

Note: "fair" indicates few or no clouds below 12,000 feet with no
significant weather and/or obstructions to visibility.

WVZ003-291600-
Northern Panhandle of West Virginia

CITY           SKY/WX    TMP DP  RH WIND       PRES   REMARKS
WHEELING       MOSUNNY   83  72  69 SW3       30.02S
$$

WVZ009-291600-
Northwest West Virginia

CITY           SKY/WX    TMP DP  RH WIND       PRES   REMARKS
PARKERSBURG    SUNNY     85  73  67 W5        30.04S
$$

WVZ006-291600-
Western West Virginia

CITY           SKY/WX    TMP DP  RH WIND       PRES   REMARKS
HUNTINGTON     MOSUNNY   83  74  74 CALM      30.02S
$$

WVZ015-291600-
West Central West Virginia

CITY           SKY/WX    TMP DP  RH WIND       PRES   REMARKS
CHARLESTON     MOSUNNY   81  73  76 SW7       30.03S
$$

WVZ022-031-291600-
North Central West Virginia

CITY           SKY/WX    TMP DP  RH WIND       PRES   REMARKS
CLARKSBURG     MOSUNNY   81  73  76 SW5       30.02S
MORGANTOWN     SUNNY     84  68  58 S5        30.04R
$$

WVZ025-035-042-045-291600-
Southern West Virginia

CITY           SKY/WX    TMP DP  RH WIND       PRES   REMARKS
BECKLEY        CLOUDY    76  69  79 VRB5      30.12S
LOGAN          CLOUDY    79  75  89 CALM      30.04S
BLUEFIELD      RAIN      75  65  70 CALM      30.15S
LEWISBURG      PTSUNNY   78  70  77 SW6       30.11S
$$

WVZ047-291600-
Northern Mountains of West Virginia

CITY           SKY/WX    TMP DP  RH WIND       PRES   REMARKS
ELKINS         SUNNY     82  69  64 VRB5      30.07S
$$

WVZ052-291600-
Eastern Panhandle of West Virginia

CITY           SKY/WX    TMP DP  RH WIND       PRES   REMARKS
MARTINSBURG    CLOUDY    77  71  82 SE6       30.03R
PETERSBURG     MOSUNNY  N/A N/A N/A CALM      30.04S
$$


USA.gov is the U.S. government's official web portal to all federal, state and local government web resources and services.